Lima, OH

5:01 AM EDT on August 24, 2016 (GMT -0400)
Lima Allen County

Weather History for KAOH - May, 2014

Change the Weather History Date:

Wednesday, May 7, 2014

  Actual Average (KFDY) Record (KFDY)
Temperature  
Mean Temperature 66 °F -  
Max Temperature 82 °F 67 °F 87 °F (2015)
Min Temperature 50 °F 45 °F 28 °F (1974)
Cooling Degree Days 1    
Growing Degree Days 16 (Base 50)    
Moisture  
Dew Point 49 °F    
Average Humidity 50    
Maximum Humidity 68    
Minimum Humidity 39    
Precipitation  
Precipitation 0.00 in - - ()
Sea Level Pressure  
Sea Level Pressure 29.94 in    
Wind  
Wind Speed 12 mph (SSE)    
Max Wind Speed 18 mph    
Max Gust Speed 26 mph    
Visibility 10 miles    
Events      
Averages and records for this station are not official NWS values.
T = Trace of Precipitation, MM = Missing Value Source: NWS Daily Summary

Daily Weather History Graph

Daily Weather History Graph

Search for Another Location

Airport or City:

Trip Planner

Search our weather history database for the weather conditions in past years. The results will help you decide how hot, cold, wet, or windy it might be!

Date:

Astronomy

May. 07, 2014 Rise Set
Actual Time 6:27 AM EDT 8:38 PM EDT
Civil Twilight 5:57 AM EDT 9:08 PM EDT
Nautical Twilight 5:20 AM EDT 9:46 PM EDT
Astronomical Twilight 4:39 AM EDT 10:27 PM EDT
Moon 1:40 PM EDT (5/7) 2:28 AM EDT (5/7)
Length of Visible Light 15h 11m
Length of Day
14h 11m
First Quarter, 55% of the Moon is Illuminated
May 7
First Quarter
May 14
Full
May 21
Last Quarter
May 28
New
Jun 5
First Quarter

Hourly Weather History & Observations

Time (EDT) Temp. Heat Index Dew Point Humidity Pressure Visibility Wind Dir Wind Speed Gust Speed Precip Events Conditions
12:53 AM 53.1 °F - 37.0 °F 55% 29.99 in 10.0 mi East 13.8 mph - N/A   Overcast
1:53 AM 53.1 °F - 37.9 °F 57% 29.98 in 10.0 mi East 10.4 mph - N/A   Overcast
2:53 AM 53.1 °F - 37.9 °F 57% 29.96 in 10.0 mi East 11.5 mph - N/A   Overcast
3:53 AM 51.1 °F - 39.0 °F 63% 29.95 in 10.0 mi East 9.2 mph - N/A   Partly Cloudy
5:53 AM 50.0 °F - 39.9 °F 68% 29.96 in 10.0 mi East 9.2 mph - N/A   Clear
6:53 AM 52.0 °F - 41.0 °F 66% 29.98 in 10.0 mi East 15.0 mph - N/A   Clear
8:53 AM 59.0 °F - 41.0 °F 51% 29.99 in 10.0 mi SSE 13.8 mph - N/A   Clear
9:53 AM 63.0 °F - 44.1 °F 50% 29.99 in 10.0 mi SSE 13.8 mph - N/A   Clear
10:53 AM 69.1 °F - 46.9 °F 45% 29.98 in 10.0 mi SSE 12.7 mph - N/A   Clear
11:53 AM 73.9 °F - 51.1 °F 45% 29.97 in 10.0 mi SSE 10.4 mph - N/A   Clear
12:53 PM 79.0 °F - 55.9 °F 45% 29.95 in 10.0 mi SSW 9.2 mph - N/A   Clear
1:53 PM 81.0 °F 80.8 °F 55.9 °F 42% 29.93 in 10.0 mi South 18.4 mph 23.0 mph N/A   Clear
2:53 PM 82.0 °F 81.4 °F 55.0 °F 39% 29.91 in 10.0 mi SSW 11.5 mph 26.5 mph N/A   Clear
3:53 PM 82.0 °F 81.4 °F 55.0 °F 39% 29.91 in 10.0 mi SSW 13.8 mph 25.3 mph N/A   Clear
4:53 PM 82.0 °F 81.4 °F 55.0 °F 39% 29.89 in 10.0 mi South 15.0 mph 19.6 mph N/A   Clear
6:53 PM 82.0 °F 81.4 °F 55.0 °F 39% 29.89 in 10.0 mi SSW 12.7 mph - N/A   Clear
7:53 PM 80.1 °F 80.2 °F 55.9 °F 43% 29.90 in 10.0 mi South 6.9 mph - N/A   Clear
8:53 PM 73.0 °F - 55.0 °F 53% 29.91 in 10.0 mi South 4.6 mph - N/A   Clear
9:53 PM 70.0 °F - 55.0 °F 59% 29.92 in 10.0 mi SSE 5.8 mph - N/A   Clear
10:53 PM 73.9 °F - 55.0 °F 52% 29.92 in 10.0 mi SSW 10.4 mph - N/A   Clear
11:53 PM 72.0 °F - 54.0 °F 53% 29.91 in 10.0 mi South 10.4 mph - N/A   Clear